Tracking 17631 objects as of 5-May-2016
HD Live streaming from Space Station
objects crossing your sky now

TURKSAT 2A

Track TURKSAT 2A now!
TURKSAT 2A is classified as:


NORAD ID: 26666
Int'l Code: 2001-002A
Perigee: 35,773.3 km
Apogee: 35,815.3 km
Inclination: 0.3 °
Period: 1,436.1 minutes
Semi major axis: 42165 km
RCS: 3.9 m2 (large)
Launch date: January 10, 2001
Source: Turkey (TURK)
Launch site: FRENCH GUIANA (FRGUI)

32 Ku-band transponders; direct-to-home voice, video, and data transmissions to countries between central Europe and the Indian subcontinent.
Your satellite tracking list
Your tracking list is empty





NASA's NSSDC Master Catalog

Two Line Element Set (TLE):
1 26666U 01002A   16124.26788454  .00000134  00000-0  00000+0 0  9994
2 26666   0.3162  81.4433 0004982 314.1925 324.4063  1.00269861 56096
Source of the keplerian elements: AFSPC

N2YO: 258